This is the latest recevied weather packets stored in our database for station/object NN5DX-12. If no packets are shown the sender has not sent any weather packets the latest 1 day(s).
| Time | Temp. | Humidity | Pressure | Rain* | Wind** | Luminosity | Snow |
|---|---|---|---|---|---|---|---|
| 1778022917 | -1.67° C | 94% | 1011.2 hPa | 0 mm | 0.45 m/s, 90° | - | - |
| 1778022616 | -1.11° C | 94% | 1011.8 hPa | 0 mm | 0.45 m/s, 113° | - | - |
| 1778021717 | -1.11° C | 95% | 1011.1 hPa | 0 mm | 0.45 m/s, 135° | - | - |
| 1778018716 | -0.56° C | 95% | 1010.3 hPa | 0 mm | 0.45 m/s, 135° | - | - |
| 1778017517 | -0.56° C | 95% | 1011 hPa | 0 mm | 0.45 m/s, 135° | - | - |
| 1778017216 | -0.56° C | 95% | 1010.9 hPa | 0 mm | 0.45 m/s, 135° | - | - |
| 1778016016 | -0.56° C | 95% | 1010.8 hPa | 0 mm | 0.45 m/s, 113° | - | - |
| 1778013916 | -0.56° C | 95% | 1011 hPa | 0 mm | 0.45 m/s, 113° | - | - |
| 1778013616 | -0.56° C | 95% | 1011.1 hPa | 0 mm | 0.45 m/s, 135° | - | - |
| 1778013316 | -0.56° C | 95% | 1011.2 hPa | 0 mm | 0.45 m/s, 113° | - | - |
| 1778013016 | -0.56° C | 95% | 1011.3 hPa | 0 mm | 0.45 m/s, 90° | - | - |
| 1778012717 | -0.56° C | 95% | 1011.3 hPa | 0 mm | 0.45 m/s, 113° | - | - |
| 1778012416 | -0.56° C | 95% | 1011.2 hPa | 0.25 mm | 0.45 m/s, 23° | - | - |
| 1778011816 | -0.56° C | 95% | 1011 hPa | 0.25 mm | 0.89 m/s, 113° | - | - |
| 1778011516 | -0.56° C | 95% | 1011 hPa | 0.25 mm | 0.89 m/s, 113° | - | - |
| 1778011216 | -0.56° C | 95% | 1010.9 hPa | 0.25 mm | 0.45 m/s, 113° | - | - |
| 1778010916 | -0.56° C | 95% | 1011 hPa | 0.25 mm | 0.45 m/s, 113° | - | - |
| 1778010616 | -0.56° C | 95% | 1011 hPa | 0.25 mm | 0.45 m/s, 23° | - | - |
| 1778010316 | -0.56° C | 95% | 1010.9 hPa | 0.51 mm | 0.45 m/s, 113° | - | - |
| 1778010016 | -0.56° C | 95% | 1010.8 hPa | 0.51 mm | 0.45 m/s, 113° | - | - |
| 1778009716 | -0.56° C | 95% | 1010.8 hPa | 0.51 mm | 0.89 m/s, 113° | - | - |
| 1778009416 | -0.56° C | 95% | 1010.8 hPa | 0.51 mm | 0.45 m/s, 135° | - | - |
| 1778009116 | -0.56° C | 95% | 1010.8 hPa | 0.51 mm | 0.45 m/s, 135° | - | - |
| 1778008817 | -0.56° C | 95% | 1010.7 hPa | 0.25 mm | 0.45 m/s, 135° | - | - |
| 1778008516 | -0.56° C | 95% | 1010.5 hPa | 0.51 mm | 0.45 m/s, 113° | - | - |
* Rain latest hour (hover to see other rain measurements)
** Current wind speed in m/s (hover to see current wind gust speed)